Regional Weather Roundup
Issued by NWS

Home | Current Version | Previous Version | Text Only | Print | Product List | Glossary Off
Versions: 1 2 3 4 5 6 7 8 9 10 11 12 13 14 15 16 17 18 19 20 21 22 23 24 25 26 27 28 29 30 31 32 33 34 35 36 37 38 39 40 41 42 43 44 45 46 47 48 49 50

000
ASUS44 KMEG 211800
RWRTN
TENNESSEE HOURLY STATE WEATHER ROUNDUP
NATIONAL WEATHER SERVICE MEMPHIS TN
1200 PM CST TUE FEB 21 2017

TNZ002-004-019-021-049-052-054-088>092-211900-
WEST TENNESSEE

CITY           SKY/WX    TMP DP  RH WIND       PRES   REMARKS
MEMPHIS INTL   PTSUNNY   66  62  87 S12       29.89F
NWS MEMPHIS      N/A     62 N/A N/A MISG        N/A
JACKSON        LGT RAIN  64  59  83 SW7       29.91F
UNION CITY     CLOUDY    61  61 100 S6        29.90F
PARIS          CLOUDY    64  55  72 S10       29.92F
$$

TNZ008-025-027-028-033-062-065-066-211900-
NORTH MIDDLE TENNESSEE

CITY           SKY/WX    TMP DP  RH WIND       PRES   REMARKS
NASHVILLE      CLOUDY    69  52  54 S22G30    29.96F
CLARKSVILLE    CLOUDY    66  53  63 SE16G24   29.91F
SMYRNA         CLOUDY    68  54  60 S16G29    29.97F
CROSSVILLE     CLOUDY    64  47  53 S12G21    30.04F
$$

TNZ061-075-076-078-094-096-097-211900-
SOUTH MIDDLE TENNESSEE

CITY           SKY/WX    TMP DP  RH WIND       PRES   REMARKS
TULLAHOMA      PTSUNNY   63  50  63 S10       30.01F
WINCHESTER     PTSUNNY   64  52  63 S13       30.01F
MCMINNVILLE    PTSUNNY   66  52  59 VRB6      30.00F
COLUMBIA       SUNNY     66  59  77 SE18      29.93F
SHELBYVILLE    PTSUNNY   64  55  72 S14       30.00F
$$

TNZ017-018-042-046-047-211900-
NORTHEAST TENNESSEE

CITY           SKY/WX    TMP DP  RH WIND       PRES   REMARKS
TRI CITIES     CLOUDY    68  42  38 S8        30.09F
$$

TNZ012-013-036-069-073-074-211900-
CENTRAL EAST TENNESSEE

CITY           SKY/WX    TMP DP  RH WIND       PRES   REMARKS
KNOXVILLE      CLOUDY    72  45  37 S13       30.04F
OAK RIDGE      MOSUNNY   71  44  37 VRB7      30.05F
GATLINBURG     SUNNY     70  39  32 CALM      30.04F
$$

TNZ083-085-099-211900-
SOUTHEAST TENNESSEE

CITY           SKY/WX    TMP DP  RH WIND       PRES   REMARKS
CHATTANOOGA    CLOUDY    67  45  45 S12       30.03F
$$

SKY/WX REPORTED AS FAIR MEANS FEW OR NO CLOUDS BELOW
12 THOUSAND FEET.




USA.gov is the U.S. government's official web portal to all federal, state and local government web resources and services.